Location: Newark
(51.5033°N, 0.1199°W)
Time: 17:56:26
(UTC+00:00)

PCSat - Visible Passes

Search period start: 14 October 2019 00:00
Search period end: 24 October 2019 00:00
Orbit: 784 x 795 km, 67.1° (Epoch: 13 October)

Date Brightness Start Highest point End Pass type
(mag) Time Alt. Az. Time Alt. Az. Time Alt. Az.
14 Oct 12.2 02:30:33 10° ESE 02:32:18 12° ESE 02:34:04 10° E visible
14 Oct 9.9 04:11:02 21° SSW 04:14:38 63° ESE 04:20:01 10° NE visible
15 Oct 10.3 03:41:37 32° S 03:43:44 48° ESE 03:48:57 10° NE visible
15 Oct 10.1 05:22:22 11° WSW 05:27:15 42° NW 05:32:25 10° NNE visible
16 Oct 10.7 03:12:05 35° SE 03:12:52 37° ESE 03:17:50 10° NE visible
16 Oct 9.8 04:52:49 22° WSW 04:56:09 51° NW 05:01:29 10° NNE visible
17 Oct 11.2 02:42:27 28° ESE 02:42:27 28° ESE 02:46:38 10° NE visible
17 Oct 9.6 04:23:12 39° WSW 04:25:05 63° NW 04:30:31 10° NE visible
18 Oct 11.8 02:12:44 19° E 02:12:44 19° E 02:15:19 10° ENE visible
18 Oct 9.4 03:53:28 69° WSW 03:54:03 79° NW 03:59:33 10° NE visible
18 Oct 10.8 05:34:12 12° W 05:38:18 25° NNW 05:42:47 10° NNE visible
19 Oct 12.3 01:42:58 12° ENE 01:42:58 12° ENE 01:43:47 10° ENE visible
19 Oct 9.7 03:23:41 70° ENE 03:23:41 70° ENE 03:28:33 10° NE visible
19 Oct 10.6 05:04:25 20° WNW 05:07:05 29° NNW 05:11:49 10° NNE visible
20 Oct 10.6 02:53:51 42° ENE 02:53:51 42° ENE 02:57:32 10° NE visible
20 Oct 10.4 04:34:34 30° WNW 04:35:55 34° NW 04:40:52 10° NNE visible
21 Oct 11.5 02:23:57 26° ENE 02:23:57 26° ENE 02:26:28 10° NE visible
21 Oct 10.1 04:04:40 40° NW 04:04:46 41° NW 04:09:55 10° NNE visible
21 Oct 11.3 05:45:58 10° WNW 05:49:38 18° NNW 05:53:19 10° NNE visible
22 Oct 12.1 01:54:01 17° NE 01:54:01 17° NE 01:55:21 10° NE visible
22 Oct 10.3 03:34:44 43° N 03:34:44 43° N 03:38:58 10° NNE visible
22 Oct 11.2 05:15:27 14° WNW 05:18:21 20° NNW 05:22:16 10° NNE visible
23 Oct 12.5 01:24:03 10° NE 01:24:03 10° NE 01:24:10 10° NE visible
23 Oct 10.8 03:04:46 35° NNE 03:04:46 35° NNE 03:08:01 10° NE visible
23 Oct 11.0 04:45:29 19° NW 04:47:05 22° NNW 04:51:16 10° NNE visible
